Year,Month,Day,Hour,Minute,Value (Times are PST for temperature in C)
2016,08,14,00,00,17.00
2016,08,14,00,01,16.90
2016,08,14,00,02,16.90
2016,08,14,00,03,16.90
2016,08,14,00,04,16.90
2016,08,14,00,05,16.90
2016,08,14,00,06,16.80
2016,08,14,00,07,16.80
2016,08,14,00,08,16.80
2016,08,14,00,09,16.80
2016,08,14,00,10,16.70
2016,08,14,00,11,16.70
2016,08,14,00,12,16.70
2016,08,14,00,13,16.70
2016,08,14,00,14,16.70
2016,08,14,00,15,16.70
2016,08,14,00,16,16.70
2016,08,14,00,17,16.70
2016,08,14,00,18,16.70
2016,08,14,00,19,16.70
2016,08,14,00,20,16.70
2016,08,14,00,21,16.70
2016,08,14,00,22,16.70
2016,08,14,00,23,16.70
2016,08,14,00,24,16.60
2016,08,14,00,25,16.60
2016,08,14,00,26,16.60
2016,08,14,00,27,16.60
2016,08,14,00,28,16.60
2016,08,14,00,29,16.60
2016,08,14,00,30,16.60
2016,08,14,00,31,16.60
2016,08,14,00,32,16.60
2016,08,14,00,33,16.60
2016,08,14,00,34,16.60
2016,08,14,00,35,16.60
2016,08,14,00,36,16.60
2016,08,14,00,37,16.60
2016,08,14,00,38,16.60
2016,08,14,00,39,16.60
2016,08,14,00,40,16.60
2016,08,14,00,41,16.60
2016,08,14,00,42,16.60
2016,08,14,00,43,16.70
2016,08,14,00,44,16.70
2016,08,14,00,45,16.70
2016,08,14,00,46,16.70
2016,08,14,00,47,16.70
2016,08,14,00,48,16.70
2016,08,14,00,49,16.70
2016,08,14,00,50,16.70
2016,08,14,00,51,16.70
2016,08,14,00,52,16.70
2016,08,14,00,53,16.70
2016,08,14,00,54,16.70
2016,08,14,00,55,16.70
2016,08,14,00,56,16.70
2016,08,14,00,57,16.70
2016,08,14,00,58,16.70
2016,08,14,00,59,16.70
2016,08,14,01,00,16.70
2016,08,14,01,01,16.70
2016,08,14,01,02,16.70
2016,08,14,01,03,16.70
2016,08,14,01,04,16.70
2016,08,14,01,05,16.70
2016,08,14,01,06,16.70
2016,08,14,01,07,16.70
2016,08,14,01,08,16.70
2016,08,14,01,09,16.70
2016,08,14,01,10,16.70
2016,08,14,01,11,16.70
2016,08,14,01,12,16.70
2016,08,14,01,13,16.70
2016,08,14,01,14,16.70
2016,08,14,01,15,16.70
2016,08,14,01,16,16.70
2016,08,14,01,17,16.70
2016,08,14,01,18,16.70
2016,08,14,01,19,16.70
2016,08,14,01,20,16.70
2016,08,14,01,21,16.70
2016,08,14,01,22,16.70
2016,08,14,01,23,16.70
2016,08,14,01,24,16.70
2016,08,14,01,25,16.70
2016,08,14,01,26,16.70
2016,08,14,01,27,16.70
2016,08,14,01,28,16.70
2016,08,14,01,29,16.70
2016,08,14,01,30,16.70
2016,08,14,01,31,16.70
2016,08,14,01,32,16.70
2016,08,14,01,33,16.70
2016,08,14,01,34,16.70
2016,08,14,01,35,16.70
2016,08,14,01,36,16.70
2016,08,14,01,37,16.70
2016,08,14,01,38,16.70
2016,08,14,01,39,16.70
2016,08,14,01,40,16.70
2016,08,14,01,41,16.70
2016,08,14,01,42,16.70
2016,08,14,01,43,16.70
2016,08,14,01,44,16.70
2016,08,14,01,45,16.70
2016,08,14,01,46,16.70
2016,08,14,01,47,16.70
2016,08,14,01,48,16.70
2016,08,14,01,49,16.70
2016,08,14,01,50,16.70
2016,08,14,01,51,16.70
2016,08,14,01,52,16.70
2016,08,14,01,53,16.70
2016,08,14,01,54,16.70
2016,08,14,01,55,16.70
2016,08,14,01,56,16.70
2016,08,14,01,57,16.70
2016,08,14,01,58,16.70
2016,08,14,01,59,16.70
2016,08,14,02,00,16.60
2016,08,14,02,01,16.60
2016,08,14,02,02,16.60
2016,08,14,02,03,16.60
2016,08,14,02,04,16.60
2016,08,14,02,05,16.50
2016,08,14,02,06,16.40
2016,08,14,02,07,16.40
2016,08,14,02,08,16.40
2016,08,14,02,09,16.40
2016,08,14,02,10,16.40
2016,08,14,02,11,16.40
2016,08,14,02,12,16.40
2016,08,14,02,13,16.40
2016,08,14,02,14,16.40
2016,08,14,02,15,16.40
2016,08,14,02,16,16.40
2016,08,14,02,17,16.40
2016,08,14,02,18,16.30
2016,08,14,02,19,16.30
2016,08,14,02,20,16.30
2016,08,14,02,21,16.30
2016,08,14,02,22,16.30
2016,08,14,02,23,16.30
2016,08,14,02,24,16.30
2016,08,14,02,25,16.30
2016,08,14,02,26,16.30
2016,08,14,02,27,16.20
2016,08,14,02,28,16.20
2016,08,14,02,29,16.20
2016,08,14,02,30,16.20
2016,08,14,02,31,16.10
2016,08,14,02,32,16.10
2016,08,14,02,33,16.10
2016,08,14,02,34,16.10
2016,08,14,02,35,16.10
2016,08,14,02,36,16.00
2016,08,14,02,37,15.90
2016,08,14,02,38,15.90
2016,08,14,02,39,15.90
2016,08,14,02,40,15.80
2016,08,14,02,41,15.80
2016,08,14,02,42,15.80
2016,08,14,02,43,15.80
2016,08,14,02,44,15.80
2016,08,14,02,45,15.80
2016,08,14,02,46,15.80
2016,08,14,02,47,15.70
2016,08,14,02,48,15.70
2016,08,14,02,49,15.70
2016,08,14,02,50,15.70
2016,08,14,02,51,15.70
2016,08,14,02,52,15.70
2016,08,14,02,53,15.60
2016,08,14,02,54,15.60
2016,08,14,02,55,15.60
2016,08,14,02,56,15.60
2016,08,14,02,57,15.60
2016,08,14,02,58,15.60
2016,08,14,02,59,15.60
2016,08,14,03,00,15.60
2016,08,14,03,01,15.60
2016,08,14,03,02,15.60
2016,08,14,03,03,15.50
2016,08,14,03,04,15.50
2016,08,14,03,05,15.50
2016,08,14,03,06,15.50
2016,08,14,03,07,15.50
2016,08,14,03,08,15.50
2016,08,14,03,09,15.50
2016,08,14,03,10,15.50
2016,08,14,03,11,15.40
2016,08,14,03,12,15.40
2016,08,14,03,13,15.40
2016,08,14,03,14,15.40
2016,08,14,03,15,15.40
2016,08,14,03,16,15.40
2016,08,14,03,17,15.40
2016,08,14,03,18,15.40
2016,08,14,03,19,15.40
2016,08,14,03,20,15.40
2016,08,14,03,21,15.40
2016,08,14,03,22,15.40
2016,08,14,03,23,15.40
2016,08,14,03,24,15.30
2016,08,14,03,25,15.30
2016,08,14,03,26,15.30
2016,08,14,03,27,15.30
2016,08,14,03,28,15.30
2016,08,14,03,29,15.30
2016,08,14,03,30,15.30
2016,08,14,03,31,15.30
2016,08,14,03,32,15.30
2016,08,14,03,33,15.30
2016,08,14,03,34,15.30
2016,08,14,03,35,15.30
2016,08,14,03,36,15.30
2016,08,14,03,37,15.30
2016,08,14,03,38,15.30
2016,08,14,03,39,15.30
2016,08,14,03,40,15.30
2016,08,14,03,41,15.30
2016,08,14,03,42,15.30
2016,08,14,03,43,15.30
2016,08,14,03,44,15.30
2016,08,14,03,45,15.30
2016,08,14,03,46,15.30
2016,08,14,03,47,15.30
2016,08,14,03,48,15.20
2016,08,14,03,49,15.20
2016,08,14,03,50,15.20
2016,08,14,03,51,15.20
2016,08,14,03,52,15.20
2016,08,14,03,53,15.20
2016,08,14,03,54,15.20
2016,08,14,03,55,15.10
2016,08,14,03,56,15.10
2016,08,14,03,57,15.10
2016,08,14,03,58,15.10
2016,08,14,03,59,15.10
2016,08,14,04,00,15.10
2016,08,14,04,01,15.00
2016,08,14,04,02,15.00
2016,08,14,04,03,15.00
2016,08,14,04,04,15.00
2016,08,14,04,05,14.90
2016,08,14,04,06,14.90
2016,08,14,04,07,14.90
2016,08,14,04,08,14.90
2016,08,14,04,09,14.80
2016,08,14,04,10,14.80
2016,08,14,04,11,14.80
2016,08,14,04,12,14.80
2016,08,14,04,13,14.80
2016,08,14,04,14,14.80
2016,08,14,04,15,14.80
2016,08,14,04,16,14.70
2016,08,14,04,17,14.70
2016,08,14,04,18,14.70
2016,08,14,04,19,14.70
2016,08,14,04,20,14.70
2016,08,14,04,21,14.70
2016,08,14,04,22,14.70
2016,08,14,04,23,14.70
2016,08,14,04,24,14.70
2016,08,14,04,25,14.70
2016,08,14,04,26,14.60
2016,08,14,04,27,14.60
2016,08,14,04,28,14.60
2016,08,14,04,29,14.60
2016,08,14,04,30,14.60
2016,08,14,04,31,14.50
2016,08,14,04,32,14.50
2016,08,14,04,33,14.50
2016,08,14,04,34,14.50
2016,08,14,04,35,14.50
2016,08,14,04,36,14.40
2016,08,14,04,37,14.40
2016,08,14,04,38,14.40
2016,08,14,04,39,14.40
2016,08,14,04,40,14.30
2016,08,14,04,41,14.30
2016,08,14,04,42,14.30
2016,08,14,04,43,14.20
2016,08,14,04,44,14.20
2016,08,14,04,45,14.20
2016,08,14,04,46,14.20
2016,08,14,04,47,14.20
2016,08,14,04,48,14.20
2016,08,14,04,49,14.20
2016,08,14,04,50,14.20
2016,08,14,04,51,14.20
2016,08,14,04,52,14.20
2016,08,14,04,53,14.20
2016,08,14,04,54,14.20
2016,08,14,04,55,14.20
2016,08,14,04,56,14.20
2016,08,14,04,57,14.20
2016,08,14,04,58,14.20
2016,08,14,04,59,14.20
2016,08,14,05,00,14.20
2016,08,14,05,01,14.20
2016,08,14,05,02,14.20
2016,08,14,05,03,14.20
2016,08,14,05,04,14.20
2016,08,14,05,05,14.10
2016,08,14,05,06,14.10
2016,08,14,05,07,14.10
2016,08,14,05,08,14.10
2016,08,14,05,09,14.10
2016,08,14,05,10,14.10
2016,08,14,05,11,14.10
2016,08,14,05,12,14.10
2016,08,14,05,13,14.10
2016,08,14,05,14,14.10
2016,08,14,05,15,14.10
2016,08,14,05,16,14.10
2016,08,14,05,17,14.10
2016,08,14,05,18,14.10
2016,08,14,05,19,14.10
2016,08,14,05,20,14.10
2016,08,14,05,21,14.20
2016,08,14,05,22,14.20
2016,08,14,05,23,14.20
2016,08,14,05,24,14.20
2016,08,14,05,25,14.20
2016,08,14,05,26,14.20
2016,08,14,05,27,14.20
2016,08,14,05,28,14.20
2016,08,14,05,29,14.20
2016,08,14,05,30,14.20
2016,08,14,05,31,14.20
2016,08,14,05,32,14.20
2016,08,14,05,33,14.20
2016,08,14,05,34,14.20
2016,08,14,05,35,14.20
2016,08,14,05,36,14.20
2016,08,14,05,37,14.20
2016,08,14,05,38,14.20
2016,08,14,05,39,14.20
2016,08,14,05,40,14.20
2016,08,14,05,41,14.10
2016,08,14,05,42,14.10
2016,08,14,05,43,14.10
2016,08,14,05,44,14.10
2016,08,14,05,45,14.10
2016,08,14,05,46,14.10
2016,08,14,05,47,14.10
2016,08,14,05,48,14.10
2016,08,14,05,49,14.10
2016,08,14,05,50,14.10
2016,08,14,05,51,14.10
2016,08,14,05,52,14.10
2016,08,14,05,53,14.10
2016,08,14,05,54,14.10
2016,08,14,05,55,14.10
2016,08,14,05,56,14.10
2016,08,14,05,57,14.10
2016,08,14,05,58,14.00
2016,08,14,05,59,14.00
2016,08,14,06,00,14.00
2016,08,14,06,01,14.00
2016,08,14,06,02,14.00
2016,08,14,06,03,14.00
2016,08,14,06,04,14.00
2016,08,14,06,05,14.00
2016,08,14,06,06,14.00
2016,08,14,06,07,14.00
2016,08,14,06,08,13.90
2016,08,14,06,09,13.90
2016,08,14,06,10,13.90
2016,08,14,06,11,13.90
2016,08,14,06,12,13.90
2016,08,14,06,13,13.90
2016,08,14,06,14,13.90
2016,08,14,06,15,13.80
2016,08,14,06,16,13.80
2016,08,14,06,17,13.80
2016,08,14,06,18,13.70
2016,08,14,06,19,13.70
2016,08,14,06,20,13.70
2016,08,14,06,21,13.70
2016,08,14,06,22,13.70
2016,08,14,06,23,13.70
2016,08,14,06,24,13.70
2016,08,14,06,25,13.70
2016,08,14,06,26,13.70
2016,08,14,06,27,13.70
2016,08,14,06,28,13.70
2016,08,14,06,29,13.70
2016,08,14,06,30,13.70
2016,08,14,06,31,13.70
2016,08,14,06,32,13.70
2016,08,14,06,33,13.70
2016,08,14,06,34,13.70
2016,08,14,06,35,13.70
2016,08,14,06,36,13.70
2016,08,14,06,37,13.70
2016,08,14,06,38,13.70
2016,08,14,06,39,13.70
2016,08,14,06,40,13.70
2016,08,14,06,41,13.70
2016,08,14,06,42,13.80
2016,08,14,06,43,13.80
2016,08,14,06,44,13.80
2016,08,14,06,45,13.80
2016,08,14,06,46,13.80
2016,08,14,06,47,13.90
2016,08,14,06,48,13.90
2016,08,14,06,49,13.90
2016,08,14,06,50,13.90
2016,08,14,06,51,14.00
2016,08,14,06,52,14.00
2016,08,14,06,53,14.00
2016,08,14,06,54,14.00
2016,08,14,06,55,14.00
2016,08,14,06,56,14.00
2016,08,14,06,57,14.10
2016,08,14,06,58,14.10
2016,08,14,06,59,14.10
2016,08,14,07,00,14.00
2016,08,14,07,01,14.00
2016,08,14,07,02,14.00
2016,08,14,07,03,14.00
2016,08,14,07,04,13.90
2016,08,14,07,05,13.90
2016,08,14,07,06,13.90
2016,08,14,07,07,13.90
2016,08,14,07,08,13.80
2016,08,14,07,09,13.80
2016,08,14,07,10,13.80
2016,08,14,07,11,13.70
2016,08,14,07,12,13.70
2016,08,14,07,13,13.70
2016,08,14,07,14,13.70
2016,08,14,07,15,13.60
2016,08,14,07,16,13.60
2016,08,14,07,17,13.50
2016,08,14,07,18,13.50
2016,08,14,07,19,13.60
2016,08,14,07,20,13.60
2016,08,14,07,21,13.60
2016,08,14,07,22,13.60
2016,08,14,07,23,13.50
2016,08,14,07,24,13.50
2016,08,14,07,25,13.50
2016,08,14,07,26,13.40
2016,08,14,07,27,13.40
2016,08,14,07,28,13.40
2016,08,14,07,29,13.30
2016,08,14,07,30,13.30
2016,08,14,07,31,13.30
2016,08,14,07,32,13.40
2016,08,14,07,33,13.40
2016,08,14,07,34,13.30
2016,08,14,07,35,13.30
2016,08,14,07,36,13.30
2016,08,14,07,37,13.30
2016,08,14,07,38,13.30
2016,08,14,07,39,13.30
2016,08,14,07,40,13.30
2016,08,14,07,41,13.30
2016,08,14,07,42,13.30
2016,08,14,07,43,13.20
2016,08,14,07,44,13.20
2016,08,14,07,45,13.20
2016,08,14,07,46,13.10
2016,08,14,07,47,13.10
2016,08,14,07,48,13.10
2016,08,14,07,49,13.10
2016,08,14,07,50,13.10
2016,08,14,07,51,13.10
2016,08,14,07,52,13.20
2016,08,14,07,53,13.20
2016,08,14,07,54,13.20
2016,08,14,07,55,13.20
2016,08,14,07,56,13.30
2016,08,14,07,57,13.30
2016,08,14,07,58,13.20
2016,08,14,07,59,13.20
2016,08,14,08,00,13.20
2016,08,14,08,01,13.20
2016,08,14,08,02,13.20
2016,08,14,08,03,13.20
2016,08,14,08,04,13.20
2016,08,14,08,05,13.30
2016,08,14,08,06,13.30
2016,08,14,08,07,13.30
2016,08,14,08,08,13.30
2016,08,14,08,09,13.30
2016,08,14,08,10,13.30
2016,08,14,08,11,13.30
2016,08,14,08,12,13.30
2016,08,14,08,13,13.30
2016,08,14,08,14,13.30
2016,08,14,08,15,13.20
2016,08,14,08,16,13.20
2016,08,14,08,17,13.20
2016,08,14,08,18,13.20
2016,08,14,08,19,13.20
2016,08,14,08,20,13.30
2016,08,14,08,21,13.30
2016,08,14,08,22,13.30
2016,08,14,08,23,13.30
2016,08,14,08,24,13.30
2016,08,14,08,25,13.30
2016,08,14,08,26,13.30
2016,08,14,08,27,13.30
2016,08,14,08,28,13.30
2016,08,14,08,29,13.30
2016,08,14,08,30,13.30
2016,08,14,08,31,13.30
2016,08,14,08,32,13.40
2016,08,14,08,33,13.40
2016,08,14,08,34,13.40
2016,08,14,08,35,13.30
2016,08,14,08,36,13.30
2016,08,14,08,37,13.30
2016,08,14,08,38,13.40
2016,08,14,08,39,13.40
2016,08,14,08,40,13.50
2016,08,14,08,41,13.50
2016,08,14,08,42,13.60
2016,08,14,08,43,13.60
2016,08,14,08,44,13.50
2016,08,14,08,45,13.40
2016,08,14,08,46,13.40
2016,08,14,08,47,13.30
2016,08,14,08,48,13.30
2016,08,14,08,49,13.30
2016,08,14,08,50,13.30
2016,08,14,08,51,13.30
2016,08,14,08,52,13.20
2016,08,14,08,53,13.20
2016,08,14,08,54,13.30
2016,08,14,08,55,13.30
2016,08,14,08,56,13.20
2016,08,14,08,57,13.20
2016,08,14,08,58,13.20
2016,08,14,08,59,13.30
2016,08,14,09,00,13.30
2016,08,14,09,01,13.30
2016,08,14,09,02,13.30
2016,08,14,09,03,13.40
2016,08,14,09,04,13.40
2016,08,14,09,05,13.30
2016,08,14,09,06,13.40
2016,08,14,09,07,13.40
2016,08,14,09,08,13.50
2016,08,14,09,09,13.40
2016,08,14,09,10,13.40
2016,08,14,09,11,13.40
2016,08,14,09,12,13.50
2016,08,14,09,13,13.50
2016,08,14,09,14,13.60
2016,08,14,09,15,13.60
2016,08,14,09,16,13.50
2016,08,14,09,17,13.50
2016,08,14,09,18,13.50
2016,08,14,09,19,13.50
2016,08,14,09,20,13.60
2016,08,14,09,21,13.60
2016,08,14,09,22,13.60
2016,08,14,09,23,13.70
2016,08,14,09,24,13.60
2016,08,14,09,25,13.60
2016,08,14,09,26,13.50
2016,08,14,09,27,13.50
2016,08,14,09,28,13.50
2016,08,14,09,29,13.40
2016,08,14,09,30,13.40
2016,08,14,09,31,13.50
2016,08,14,09,32,13.50
2016,08,14,09,33,13.60
2016,08,14,09,34,13.70
2016,08,14,09,35,13.70
2016,08,14,09,36,13.80
2016,08,14,09,37,13.80
2016,08,14,09,38,13.90
2016,08,14,09,39,14.00
2016,08,14,09,40,14.10
2016,08,14,09,41,14.20
2016,08,14,09,42,14.30
2016,08,14,09,43,14.30
2016,08,14,09,44,14.30
2016,08,14,09,45,14.40
2016,08,14,09,46,14.40
2016,08,14,09,47,14.50
2016,08,14,09,48,14.60
2016,08,14,09,49,14.60
2016,08,14,09,50,14.70
2016,08,14,09,51,14.80
2016,08,14,09,52,14.90
2016,08,14,09,53,15.00
2016,08,14,09,54,15.10
2016,08,14,09,55,15.10
2016,08,14,09,56,15.20
2016,08,14,09,57,15.20
2016,08,14,09,58,15.30
2016,08,14,09,59,15.30
2016,08,14,10,00,15.30
2016,08,14,10,01,15.30
2016,08,14,10,02,15.40
2016,08,14,10,03,15.40
2016,08,14,10,04,15.40
2016,08,14,10,05,15.40
2016,08,14,10,06,15.40
2016,08,14,10,07,15.50
2016,08,14,10,08,15.60
2016,08,14,10,09,15.60
2016,08,14,10,10,15.80
2016,08,14,10,11,15.90
2016,08,14,10,12,16.00
2016,08,14,10,13,16.10
2016,08,14,10,14,16.20
2016,08,14,10,15,16.20
2016,08,14,10,16,16.10
2016,08,14,10,17,16.10
2016,08,14,10,18,16.10
2016,08,14,10,19,16.10
2016,08,14,10,20,16.10
2016,08,14,10,21,16.10
2016,08,14,10,22,16.00
2016,08,14,10,23,16.10
2016,08,14,10,24,16.10
2016,08,14,10,25,16.10
2016,08,14,10,26,16.10
2016,08,14,10,27,16.10
2016,08,14,10,28,16.10
2016,08,14,10,29,16.10
2016,08,14,10,30,16.10
2016,08,14,10,31,16.10
2016,08,14,10,32,16.10
2016,08,14,10,33,16.10
2016,08,14,10,34,16.20
2016,08,14,10,35,16.20
2016,08,14,10,36,16.20
2016,08,14,10,37,16.30
2016,08,14,10,38,16.40
2016,08,14,10,39,16.50
2016,08,14,10,40,16.60
2016,08,14,10,41,16.60
2016,08,14,10,42,16.70
2016,08,14,10,43,16.70
2016,08,14,10,44,16.70
2016,08,14,10,45,16.80
2016,08,14,10,46,16.80
2016,08,14,10,47,16.80
2016,08,14,10,48,16.80
2016,08,14,10,49,16.90
2016,08,14,10,50,16.80
2016,08,14,10,51,16.80
2016,08,14,10,52,16.80
2016,08,14,10,53,16.80
2016,08,14,10,54,16.70
2016,08,14,10,55,16.80
2016,08,14,10,56,16.70
2016,08,14,10,57,16.70
2016,08,14,10,58,16.70
2016,08,14,10,59,16.70
2016,08,14,11,00,16.70
2016,08,14,11,01,16.70
2016,08,14,11,02,16.70
2016,08,14,11,03,16.70
2016,08,14,11,04,16.70
2016,08,14,11,05,16.70
2016,08,14,11,06,16.70
2016,08,14,11,07,16.70
2016,08,14,11,08,16.70
2016,08,14,11,09,16.70
2016,08,14,11,10,16.80
2016,08,14,11,11,16.90
2016,08,14,11,12,16.80
2016,08,14,11,13,16.90
2016,08,14,11,14,16.80
2016,08,14,11,15,16.70
2016,08,14,11,16,16.70
2016,08,14,11,17,16.60
2016,08,14,11,18,16.50
2016,08,14,11,19,16.40
2016,08,14,11,20,16.40
2016,08,14,11,21,16.40
2016,08,14,11,22,16.40
2016,08,14,11,23,16.40
2016,08,14,11,24,16.40
2016,08,14,11,25,16.40
2016,08,14,11,26,16.40
2016,08,14,11,27,16.40
2016,08,14,11,28,16.40
2016,08,14,11,29,16.50
2016,08,14,11,30,16.60
2016,08,14,11,31,16.60
2016,08,14,11,32,16.70
2016,08,14,11,33,16.70
2016,08,14,11,34,16.80
2016,08,14,11,35,16.90
2016,08,14,11,36,16.90
2016,08,14,11,37,16.80
2016,08,14,11,38,16.80
2016,08,14,11,39,16.80
2016,08,14,11,40,16.80
2016,08,14,11,41,16.80
2016,08,14,11,42,16.70
2016,08,14,11,43,16.70
2016,08,14,11,44,16.80
2016,08,14,11,45,16.80
2016,08,14,11,46,16.80
2016,08,14,11,47,16.80
2016,08,14,11,48,16.80
2016,08,14,11,49,16.90
2016,08,14,11,50,16.90
2016,08,14,11,51,17.00
2016,08,14,11,52,17.10
2016,08,14,11,53,17.10
2016,08,14,11,54,17.10
2016,08,14,11,55,17.10
2016,08,14,11,56,17.10
2016,08,14,11,57,17.20
2016,08,14,11,58,17.30
2016,08,14,11,59,17.30
2016,08,14,12,00,17.30
2016,08,14,12,01,17.30
2016,08,14,12,02,17.40
2016,08,14,12,03,17.40
2016,08,14,12,04,17.40
2016,08,14,12,05,17.40
2016,08,14,12,06,17.50
2016,08,14,12,07,17.50
2016,08,14,12,08,17.60
2016,08,14,12,09,17.50
2016,08,14,12,10,17.50
2016,08,14,12,11,17.40
2016,08,14,12,12,17.40
2016,08,14,12,13,17.50
2016,08,14,12,14,17.60
2016,08,14,12,15,17.80
2016,08,14,12,16,17.70
2016,08,14,12,17,17.70
2016,08,14,12,18,17.70
2016,08,14,12,19,17.80
2016,08,14,12,20,17.80
2016,08,14,12,21,17.80
2016,08,14,12,22,17.80
2016,08,14,12,23,17.70
2016,08,14,12,24,17.70
2016,08,14,12,25,17.70
2016,08,14,12,26,17.70
2016,08,14,12,27,17.70
2016,08,14,12,28,17.80
2016,08,14,12,29,17.90
2016,08,14,12,30,18.10
2016,08,14,12,31,18.20
2016,08,14,12,32,18.20
2016,08,14,12,33,18.20
2016,08,14,12,34,18.20
2016,08,14,12,35,18.20
2016,08,14,12,36,18.20
2016,08,14,12,37,18.20
2016,08,14,12,38,18.20
2016,08,14,12,39,18.30
2016,08,14,12,40,18.40
2016,08,14,12,41,18.50
2016,08,14,12,42,18.60
2016,08,14,12,43,18.70
2016,08,14,12,44,18.70
2016,08,14,12,45,18.60
2016,08,14,12,46,18.60
2016,08,14,12,47,18.50
2016,08,14,12,48,18.40
2016,08,14,12,49,18.30
2016,08,14,12,50,18.20
2016,08,14,12,51,18.20
2016,08,14,12,52,18.20
2016,08,14,12,53,18.20
2016,08,14,12,54,18.20
2016,08,14,12,55,18.20
2016,08,14,12,56,18.20
2016,08,14,12,57,18.00
2016,08,14,12,58,17.80
2016,08,14,12,59,17.60
2016,08,14,13,00,17.40
2016,08,14,13,01,17.30
2016,08,14,13,02,17.20
2016,08,14,13,03,17.20
2016,08,14,13,04,17.20
2016,08,14,13,05,17.20
2016,08,14,13,06,17.20
2016,08,14,13,07,17.10
2016,08,14,13,08,17.10
2016,08,14,13,09,17.20
2016,08,14,13,10,17.30
2016,08,14,13,11,17.30
2016,08,14,13,12,17.40
2016,08,14,13,13,17.50
2016,08,14,13,14,17.60
2016,08,14,13,15,17.70
2016,08,14,13,16,17.90
2016,08,14,13,17,17.90
2016,08,14,13,18,18.00
2016,08,14,13,19,18.00
2016,08,14,13,20,17.90
2016,08,14,13,21,17.90
2016,08,14,13,22,18.10
2016,08,14,13,23,18.10
2016,08,14,13,24,18.20
2016,08,14,13,25,18.30
2016,08,14,13,26,18.40
2016,08,14,13,27,18.50
2016,08,14,13,28,18.60
2016,08,14,13,29,18.80
2016,08,14,13,30,18.90
2016,08,14,13,31,19.00
2016,08,14,13,32,19.10
2016,08,14,13,33,19.10
2016,08,14,13,34,19.10
2016,08,14,13,35,19.10
2016,08,14,13,36,19.20
2016,08,14,13,37,19.40
2016,08,14,13,38,19.50
2016,08,14,13,39,19.60
2016,08,14,13,40,19.70
2016,08,14,13,41,19.90
2016,08,14,13,42,20.10
2016,08,14,13,43,20.30
2016,08,14,13,44,20.50
2016,08,14,13,45,20.60
2016,08,14,13,46,20.70
2016,08,14,13,47,20.80
2016,08,14,13,48,20.90
2016,08,14,13,49,20.90
2016,08,14,13,50,21.00
2016,08,14,13,51,20.90
2016,08,14,13,52,20.90
2016,08,14,13,53,21.00
2016,08,14,13,54,21.00
2016,08,14,13,55,21.00
2016,08,14,13,56,21.00
2016,08,14,13,57,21.10
2016,08,14,13,58,21.10
2016,08,14,13,59,21.20
2016,08,14,14,00,21.40
2016,08,14,14,01,21.60
2016,08,14,14,02,21.60
2016,08,14,14,03,21.70
2016,08,14,14,04,21.90
2016,08,14,14,05,21.90
2016,08,14,14,06,21.90
2016,08,14,14,07,22.00
2016,08,14,14,08,22.00
2016,08,14,14,09,22.00
2016,08,14,14,10,22.10
2016,08,14,14,11,22.20
2016,08,14,14,12,22.30
2016,08,14,14,13,22.30
2016,08,14,14,14,22.30
2016,08,14,14,15,22.30
2016,08,14,14,16,22.40
2016,08,14,14,17,22.40
2016,08,14,14,18,22.50
2016,08,14,14,19,22.50
2016,08,14,14,20,22.50
2016,08,14,14,21,22.50
2016,08,14,14,22,22.50
2016,08,14,14,23,22.50
2016,08,14,14,24,22.40
2016,08,14,14,25,22.40
2016,08,14,14,26,22.40
2016,08,14,14,27,22.40
2016,08,14,14,28,22.40
2016,08,14,14,29,22.40
2016,08,14,14,30,22.20
2016,08,14,14,31,22.10
2016,08,14,14,32,22.10
2016,08,14,14,33,22.20
2016,08,14,14,34,22.20
2016,08,14,14,35,22.30
2016,08,14,14,36,22.20
2016,08,14,14,37,22.30
2016,08,14,14,38,22.30
2016,08,14,14,39,22.30
2016,08,14,14,40,22.20
2016,08,14,14,41,22.30
2016,08,14,14,42,22.30
2016,08,14,14,43,22.30
2016,08,14,14,44,22.40
2016,08,14,14,45,22.40
2016,08,14,14,46,22.40
2016,08,14,14,47,22.50
2016,08,14,14,48,22.50
2016,08,14,14,49,22.50
2016,08,14,14,50,22.50
2016,08,14,14,51,22.50
2016,08,14,14,52,22.50
2016,08,14,14,53,22.50
2016,08,14,14,54,22.50
2016,08,14,14,55,22.50
2016,08,14,14,56,22.60
2016,08,14,14,57,22.70
2016,08,14,14,58,22.80
2016,08,14,14,59,22.90
2016,08,14,15,00,22.90
2016,08,14,15,01,23.10
2016,08,14,15,02,23.20
2016,08,14,15,03,23.30
2016,08,14,15,04,23.20
2016,08,14,15,05,23.00
2016,08,14,15,06,22.90
2016,08,14,15,07,22.90
2016,08,14,15,08,22.90
2016,08,14,15,09,22.90
2016,08,14,15,10,22.90
2016,08,14,15,11,22.90
2016,08,14,15,12,22.90
2016,08,14,15,13,22.90
2016,08,14,15,14,22.80
2016,08,14,15,15,22.80
2016,08,14,15,16,22.90
2016,08,14,15,17,22.90
2016,08,14,15,18,22.90
2016,08,14,15,19,23.00
2016,08,14,15,20,23.20
2016,08,14,15,21,23.30
2016,08,14,15,22,23.40
2016,08,14,15,23,23.60
2016,08,14,15,24,23.70
2016,08,14,15,25,23.70
2016,08,14,15,26,23.70
2016,08,14,15,27,23.70
2016,08,14,15,28,23.80
2016,08,14,15,29,23.90
2016,08,14,15,30,24.00
2016,08,14,15,31,24.10
2016,08,14,15,32,24.20
2016,08,14,15,33,24.30
2016,08,14,15,34,24.30
2016,08,14,15,35,24.40
2016,08,14,15,36,24.40
2016,08,14,15,37,24.40
2016,08,14,15,38,24.50
2016,08,14,15,39,24.60
2016,08,14,15,40,24.50
2016,08,14,15,41,24.40
2016,08,14,15,42,24.40
2016,08,14,15,43,24.30
2016,08,14,15,44,24.30
2016,08,14,15,45,24.30
2016,08,14,15,46,24.30
2016,08,14,15,47,24.30
2016,08,14,15,48,24.40
2016,08,14,15,49,24.50
2016,08,14,15,50,24.50
2016,08,14,15,51,24.50
2016,08,14,15,52,24.50
2016,08,14,15,53,24.40
2016,08,14,15,54,24.20
2016,08,14,15,55,24.10
2016,08,14,15,56,24.00
2016,08,14,15,57,23.90
2016,08,14,15,58,23.90
2016,08,14,15,59,23.80
2016,08,14,16,00,23.80
2016,08,14,16,01,23.80
2016,08,14,16,02,23.80
2016,08,14,16,03,23.90
2016,08,14,16,04,23.90
2016,08,14,16,05,23.90
2016,08,14,16,06,23.90
2016,08,14,16,07,23.90
2016,08,14,16,08,24.00
2016,08,14,16,09,24.10
2016,08,14,16,10,24.10
2016,08,14,16,11,24.30
2016,08,14,16,12,24.40
2016,08,14,16,13,24.60
2016,08,14,16,14,24.70
2016,08,14,16,15,24.90
2016,08,14,16,16,25.00
2016,08,14,16,17,25.10
2016,08,14,16,18,25.10
2016,08,14,16,19,25.10
2016,08,14,16,20,25.10
2016,08,14,16,21,25.10
2016,08,14,16,22,25.10
2016,08,14,16,23,25.20
2016,08,14,16,24,25.10
2016,08,14,16,25,25.00
2016,08,14,16,26,24.80
2016,08,14,16,27,24.70
2016,08,14,16,28,24.60
2016,08,14,16,29,24.60
2016,08,14,16,30,24.60
2016,08,14,16,31,24.70
2016,08,14,16,32,24.80
2016,08,14,16,33,24.90
2016,08,14,16,34,24.90
2016,08,14,16,35,24.90
2016,08,14,16,36,24.80
2016,08,14,16,37,24.80
2016,08,14,16,38,24.70
2016,08,14,16,39,24.80
2016,08,14,16,40,24.70
2016,08,14,16,41,24.60
2016,08,14,16,42,24.40
2016,08,14,16,43,24.30
2016,08,14,16,44,24.10
2016,08,14,16,45,24.10
2016,08,14,16,46,24.10
2016,08,14,16,47,24.10
2016,08,14,16,48,24.10
2016,08,14,16,49,24.10
2016,08,14,16,50,24.00
2016,08,14,16,51,23.80
2016,08,14,16,52,23.60
2016,08,14,16,53,23.60
2016,08,14,16,54,23.60
2016,08,14,16,55,23.50
2016,08,14,16,56,23.40
2016,08,14,16,57,23.40
2016,08,14,16,58,23.30
2016,08,14,16,59,23.30
2016,08,14,17,00,23.30
2016,08,14,17,01,23.30
2016,08,14,17,02,23.30
2016,08,14,17,03,23.20
2016,08,14,17,04,23.10
2016,08,14,17,05,23.00
2016,08,14,17,06,22.90
2016,08,14,17,07,22.90
2016,08,14,17,08,22.80
2016,08,14,17,09,22.80
2016,08,14,17,10,22.80
2016,08,14,17,11,22.70
2016,08,14,17,12,22.60
2016,08,14,17,13,22.50
2016,08,14,17,14,22.50
2016,08,14,17,15,22.40
2016,08,14,17,16,22.40
2016,08,14,17,17,22.40
2016,08,14,17,18,22.40
2016,08,14,17,19,22.40